Wind_Speed
5 6 3 2 3 9 15 13 14 12 11 14 11 9 16 12 7 13 23 16 14 14 15 17 18 20 19 20 20 20 18 18 19 19 19 18 17 14 12 10 10 10 8 8 8 8 9 10 11
4 4 3 5 7 12 12 11 13 12 15 16 14 11 12 17 20 25 23 18 17 17 15 16 17 19 18 18 18 16 16 16 17 18 17 14 12 10 7 7 7 7 5 5 5 6 7 8 8
5 5 2 3 11 13 12 10 10 15 14 8 7 13 8 11 24 20 22 22 19 17 15 18 16 17 17 16 15 16 16 16 15 15 14 13 11 8 6 5 5 5 3 3 4 5 4 5 6
4 2 2 11 16 17 14 10 12 13 10 10 13 12 13 17 14 21 23 21 18 17 15 17 15 14 15 15 14 13 14 14 13 13 12 11 9 7 5 5 5 4 2 2 2 4 4 3 4
3 4 11 14 16 14 12 9 8 8 8 10 5 12 17 8 16 25 22 19 18 16 14 14 13 13 13 13 12 11 11 10 10 10 9 9 7 6 5 4 3 4 3 4 3 5 5 4 4
2 4 10 12 13 10 11 10 7 11 10 12 18 24 15 13 22 21 19 19 16 16 14 11 12 11 11 11 11 10 10 10 8 8 7 6 6 5 5 3 3 1 1 2 3 5 5 7 6
5 9 11 14 11 10 9 8 10 12 12 15 22 14 16 20 22 19 19 17 15 15 13 11 8 9 10 10 10 8 8 9 9 7 7 6 6 5 4 4 4 3 3 2 4 4 6 8 9
2 3 8 6 10 10 7 12 9 12 14 16 19 8 21 24 22 19 18 17 15 12 11 12 10 7 8 7 8 9 8 8 7 7 6 5 4 4 3 3 2 2 2 2 3 5 6 9 10
4 3 9 7 8 8 10 8 5 10 17 8 3 17 24 26 22 20 18 16 14 12 11 9 8 7 8 7 5 6 6 6 6 4 5 4 4 2 1 3 3 2 4 2 3 4 6 7 8
6 8 7 4 5 9 8 6 12 11 12 10 13 18 28 27 23 21 19 17 14 12 11 11 9 8 7 7 6 7 5 4 5 5 6 5 4 4 4 3 2 1 3 3 4 5 4 5 7
9 8 8 7 5 8 8 8 7 11 6 9 21 27 27 25 23 20 17 15 14 12 11 10 10 9 7 7 7 5 5 5 5 5 4 6 3 1 1 1 1 1 1 4 4 5 5 7 6
11 8 6 7 5 8 6 7 7 5 6 11 21 28 26 22 21 19 17 15 14 13 11 9 9 8 8 7 5 6 6 5 5 3 4 1 2 1 2 3 4 3 6 3 4 5 7 7 8
11 8 6 7 6 8 5 4 4 6 11 18 24 25 23 20 18 17 16 15 15 14 13 11 11 10 9 10 7 6 6 5 5 4 3 1 1 2 3 2 4 4 4 3 2 2 3 4 9
4 7 9 7 7 6 3 6 7 8 15 21 25 24 22 19 18 16 16 16 15 14 13 12 11 11 11 9 10 7 7 5 5 4 3 2 2 3 3 3 4 2 2 3 3 2 3 3 3
6 7 9 8 7 5 8 8 2 15 18 22 23 23 21 19 18 17 16 15 15 14 14 13 13 12 13 12 11 7 5 4 4 3 1 1 1 2 4 2 3 2 0 2 1 5 2 2 5
4 4 6 5 7 5 8 8 8 18 20 22 23 22 22 20 19 17 15 15 14 13 15 14 13 13 13 11 11 7 6 5 4 3 2 3 3 2 1 3 1 2 2 1 2 2 1 3 2
3 7 4 5 5 3 6 8 14 17 19 21 22 23 22 22 19 17 16 16 15 15 15 16 15 14 13 13 12 9 7 6 5 4 3 5 2 2 1 1 1 3 1 1 2 2 1 1 1
3 4 3 6 4 4 4 7 13 18 19 19 22 23 23 23 22 20 19 16 16 15 15 16 15 14 14 12 13 10 7 6 5 4 3 3 4 2 1 1 1 2 2 0 1 1 1 1 4
1 2 2 6 4 4 4 5 13 19 19 19 21 23 24 24 23 21 20 19 17 17 17 18 17 17 15 13 11 9 7 5 4 3 3 2 1 2 3 2 3 3 1 3 2 2 4 6 12
8 6 3 6 3 4 2 7 10 19 23 22 22 23 23 23 23 23 21 20 20 20 20 20 20 20 18 14 11 9 8 7 6 4 5 4 4 3 2 4 3 5 4 3 3 6 6 5 5
13 11 2 6 4 6 8 8 8 15 18 22 22 22 22 24 25 25 24 22 21 21 22 23 22 21 20 17 13 12 9 11 7 7 5 6 5 5 4 5 4 5 4 3 2 7 8 4 5
17 3 4 3 6 3 3 1 9 11 15 19 22 24 23 25 24 24 25 24 22 21 20 21 22 23 20 20 16 14 10 9 8 7 6 7 9 7 5 5 4 3 4 5 3 7 8 8 5
16 0 4 3 10 7 10 7 9 9 10 15 23 26 26 26 26 25 24 24 22 20 20 20 20 23 22 21 20 16 13 10 8 8 9 7 7 8 7 5 4 3 3 5 5 6 9 7 7
8 8 9 9 10 10 7 7 9 10 5 4 11 25 30 28 28 26 22 20 20 19 18 17 19 22 23 21 20 20 15 12 9 9 9 8 7 8 9 7 6 6 5 5 5 5 7 9 10
12 14 11 12 11 10 6 7 10 5 5 1 3 20 28 28 27 25 24 22 20 20 19 18 19 20 20 20 19 19 17 15 13 12 10 10 8 8 10 9 8 7 6 6 7 6 8 9 8
16 18 11 10 11 8 5 7 3 3 4 3 3 14 25 27 26 26 27 26 24 21 21 20 19 19 19 20 19 18 18 17 15 13 11 11 9 8 10 8 8 8 8 7 6 6 5 7 7
15 15 16 17 4 8 4 5 10 3 3 2 7 10 21 24 26 27 26 26 24 22 21 21 21 20 18 18 20 20 20 19 15 16 14 13 13 10 12 9 9 9 8 8 7 6 7 8 7
10 16 10 10 12 10 9 6 9 7 6 4 8 9 15 19 21 21 21 23 23 22 21 18 19 17 18 13 14 17 18 20 20 20 19 16 15 14 14 12 11 11 9 9 9 8 7 8 8
10 9 12 10 7 9 9 7 8 5 5 5 8 6 7 11 16 20 20 19 18 20 21 18 16 19 19 8 18 19 17 18 19 20 20 21 19 18 18 16 15 13 12 11 11 10 11 8 10
15 19 16 11 13 10 11 10 4 3 5 7 7 6 4 5 9 16 18 17 17 18 19 20 21 20 19 18 16 30 21 18 22 18 17 20 21 21 20 20 19 18 16 15 14 13 11 10 10
Wind_Direction
40 70 54 300 137 76 77 77 101 110 91 90 85 82 75 36 6 102 141 139 146 123 129 126 124 127 136 131 132 136 141 141 146 148 144 145 142 136 127 120 120 113 113 105 95 83 83 82 85
42 31 359 281 80 78 74 101 90 77 104 109 89 71 72 78 100 125 135 146 130 127 123 128 133 134 134 130 132 136 137 139 151 154 152 152 157 153 140 131 133 138 115 99 84 83 75 71 78
48 40 303 49 53 59 76 78 96 110 120 86 94 78 70 99 122 126 139 136 130 123 128 129 134 133 132 131 131 133 132 139 151 149 155 160 164 171 168 161 158 149 144 108 100 93 101 84 68
2 3 235 67 76 67 74 83 108 118 108 83 111 84 91 125 125 135 139 134 131 127 132 127 129 129 131 127 129 133 132 139 149 153 158 168 178 179 168 170 184 190 197 249 151 155 147 122 104
29 253 88 81 86 77 76 74 109 116 99 116 120 124 118 123 132 137 139 137 132 133 130 132 133 133 130 130 130 127 133 142 152 157 169 177 195 185 179 194 208 226 226 232 199 176 168 136 134
191 282 82 85 90 78 60 76 106 101 115 102 116 125 121 134 141 144 142 141 137 131 132 125 130 127 129 133 126 130 140 141 146 151 164 173 184 176 161 174 182 145 166 124 152 185 164 153 138
343 64 75 92 104 90 69 63 82 102 114 112 130 125 136 148 152 148 144 146 142 137 136 127 130 131 129 129 131 137 145 146 140 151 148 153 170 159 153 165 143 140 142 118 126 155 148 148 158
323 82 87 63 81 91 97 86 89 87 93 125 132 153 157 157 154 150 151 151 152 147 140 142 135 137 121 131 137 148 140 144 141 145 147 163 153 152 153 121 110 137 177 158 123 148 156 163 169
270 94 70 63 58 118 128 105 82 109 130 109 106 146 154 155 154 156 158 160 162 156 155 149 147 147 151 142 154 136 140 142 136 128 148 125 151 160 183 204 185 183 173 182 178 155 158 171 178
347 50 63 48 86 127 143 117 127 140 125 116 122 132 152 156 160 164 167 169 167 169 165 163 164 171 159 153 155 156 161 143 157 166 151 157 166 162 143 155 176 298 169 175 173 171 170 170 167
33 89 120 90 77 140 130 138 146 145 165 138 146 147 156 162 167 172 173 173 172 176 177 177 177 179 160 163 159 163 161 161 171 153 158 166 147 193 175 93 307 34 163 184 173 187 176 184 200
97 97 105 116 119 153 161 137 144 68 73 137 153 154 160 168 173 176 178 178 181 183 183 185 192 183 171 181 157 173 160 160 142 185 143 150 107 301 12 52 26 57 97 127 167 179 197 174 186
105 109 96 139 116 136 144 163 107 110 120 137 149 157 165 170 174 179 180 183 185 189 189 188 187 188 181 166 176 174 166 155 166 172 196 175 43 44 42 98 84 54 82 98 61 3 174 189 178
116 117 116 133 127 119 174 137 149 136 141 147 157 164 166 170 172 176 182 186 190 190 191 185 181 178 166 166 153 163 156 168 164 178 182 121 57 11 44 61 66 91 151 140 131 167 137 148 152
146 135 139 147 153 138 129 155 173 153 157 156 165 170 170 172 171 174 178 185 191 190 188 185 180 178 160 160 157 166 175 172 172 174 166 251 346 32 65 116 112 144 165 24 114 86 60 140 191
146 170 144 143 192 163 223 114 144 161 166 166 171 172 175 178 175 172 175 178 186 185 189 183 181 184 179 180 172 184 197 207 201 223 234 329 350 358 31 47 144 166 130 108 103 113 115 38 208
197 93 56 133 188 167 245 116 158 173 175 174 177 181 183 182 184 186 182 182 186 184 187 190 191 190 196 194 191 197 209 199 222 242 252 272 287 4 24 42 298 196 174 175 170 54 330 340 210
87 107 111 30 87 231 217 126 167 182 186 181 184 187 191 193 193 193 193 190 191 193 191 193 198 196 201 205 204 205 216 220 232 245 257 282 254 259 251 269 220 192 188 266 210 141 121 83 134
294 317 25 86 34 267 244 246 172 184 195 190 189 192 197 200 197 197 200 200 200 201 202 203 201 203 202 207 208 213 217 221 228 240 258 284 303 284 249 221 249 196 184 202 295 28 130 112 110
238 266 116 128 65 267 222 262 188 184 198 200 196 194 198 198 196 196 199 201 206 208 209 208 210 213 211 211 214 213 215 219 225 242 260 273 282 321 253 246 249 217 241 269 294 158 153 145 144
239 256 44 347 332 243 292 230 181 190 201 202 206 204 199 198 196 195 198 203 206 209 212 214 216 218 218 210 218 225 223 227 241 248 259 252 289 289 270 260 233 251 212 262 279 177 175 179 186
248 125 191 247 281 323 327 298 175 169 202 206 207 204 205 204 203 202 202 204 206 213 215 217 219 221 224 223 217 222 219 230 236 241 255 247 271 263 259 244 235 217 198 225 240 197 191 175 199
254 231 216 242 265 263 194 261 110 158 194 208 211 211 209 202 205 204 204 203 205 208 214 217 218 223 221 223 221 227 224 234 235 235 246 259 262 244 251 255 262 261 206 227 222 211 204 217 201
244 232 220 242 269 268 216 253 169 151 93 157 195 205 208 204 205 206 206 202 206 209 212 214 219 224 222 226 223 230 224 229 232 239 243 251 251 253 247 255 252 253 240 231 218 221 233 220 226
209 226 234 227 228 244 110 234 268 54 48 154 226 193 199 202 203 204 205 204 204 207 209 209 214 217 217 221 226 229 233 242 248 246 249 238 248 254 253 251 252 252 262 258 236 233 245 249 244
217 228 229 216 241 240 142 237 218 70 347 343 202 180 189 195 198 201 205 205 203 203 204 205 209 210 215 220 224 231 233 237 242 247 233 236 237 253 249 256 247 259 261 261 261 246 245 260 254
192 228 245 272 232 283 246 196 272 159 116 76 142 158 184 194 196 196 199 202 201 202 203 205 203 206 209 219 226 230 235 232 229 230 241 243 243 246 258 259 255 265 266 259 257 240 251 258 265
260 213 208 234 257 242 244 232 278 201 292 148 154 177 173 192 197 198 198 199 197 200 199 197 200 200 205 209 230 230 235 240 238 243 246 240 241 251 250 260 261 262 269 260 255 242 248 252 259
195 209 234 282 237 275 257 247 262 283 307 187 149 177 184 196 194 197 195 195 190 188 188 187 174 188 193 186 276 236 228 245 246 245 247 249 249 252 255 260 261 262 261 264 254 241 241 256 253
232 217 217 224 218 242 286 291 12 116 149 163 137 140 140 172 184 187 179 172 178 177 176 174 179 202 213 243 269 236 239 242 247 246 253 254 252 253 254 256 256 257 258 257 261 255 239 254 257
Height
1503 1502 1502 1502 1498 1494 1507 1513 1507 1515 1516 1524 1526 1526 1531 1534 1531 1548 1555 1557 1560 1562 1564 1564 1564 1565 1566 1566 1568 1569 1570 1569 1571 1572 1574 1576 1577 1578 1579 1580 1581 1582 1583 1583 1584 1585 1585 1586 1587
1505 1504 1505 1498 1496 1509 1515 1508 1513 1514 1521 1526 1530 1532 1532 1541 1543 1550 1557 1561 1564 1566 1568 1567 1567 1568 1569 1569 1569 1571 1571 1572 1573 1574 1576 1578 1580 1580 1581 1582 1583 1584 1585 1585 1586 1587 1587 1587 1588
1506 1505 1505 1498 1503 1513 1518 1511 1515 1521 1524 1525 1531 1536 1539 1548 1552 1554 1560 1563 1566 1568 1569 1566 1569 1570 1571 1570 1572 1572 1573 1574 1576 1576 1578 1579 1580 1581 1582 1583 1584 1585 1585 1586 1587 1588 1588 1588 1589
1509 1510 1505 1502 1515 1511 1513 1518 1520 1524 1527 1529 1531 1538 1546 1552 1555 1556 1561 1564 1567 1570 1571 1569 1570 1572 1573 1573 1574 1575 1575 1576 1578 1578 1579 1581 1582 1582 1582 1583 1585 1585 1586 1586 1587 1588 1588 1589 1589
1511 1506 1505 1513 1517 1514 1516 1520 1520 1522 1527 1530 1532 1539 1547 1555 1555 1558 1563 1567 1569 1571 1571 1571 1573 1574 1574 1575 1576 1577 1578 1579 1580 1580 1581 1582 1583 1583 1582 1584 1585 1585 1586 1586 1587 1588 1588 1589 1590
1508 1505 1508 1521 1522 1519 1519 1522 1522 1524 1529 1533 1536 1541 1550 1555 1558 1562 1564 1567 1570 1572 1574 1573 1573 1575 1575 1576 1577 1578 1580 1580 1581 1581 1582 1583 1583 1583 1583 1584 1585 1585 1586 1586 1587 1587 1588 1589 1590
1507 1504 1513 1516 1523 1522 1523 1524 1522 1526 1530 1533 1539 1542 1552 1556 1560 1563 1565 1568 1570 1573 1575 1576 1576 1576 1576 1577 1578 1580 1581 1581 1581 1582 1583 1583 1584 1583 1584 1585 1585 1586 1587 1587 1587 1588 1588 1590 1591
1511 1504 1512 1513 1519 1528 1526 1527 1527 1528 1534 1538 1541 1545 1549 1555 1559 1562 1566 1570 1573 1574 1574 1577 1579 1580 1580 1579 1580 1581 1581 1582 1582 1582 1583 1584 1584 1585 1585 1585 1587 1587 1588 1588 1589 1589 1589 1590 1592
1512 1504 1518 1521 1517 1525 1528 1528 1531 1532 1535 1538 1541 1542 1550 1555 1560 1564 1567 1570 1571 1573 1576 1578 1579 1579 1580 1582 1581 1582 1582 1582 1582 1584 1584 1585 1588 1588 1587 1587 1587 1584 1587 1588 1589 1590 1590 1590 1592
1506 1510 1522 1521 1520 1522 1526 1528 1532 1533 1536 1540 1543 1546 1551 1556 1560 1564 1567 1569 1571 1572 1575 1578 1579 1581 1581 1583 1583 1585 1585 1586 1586 1586 1584 1586 1587 1586 1586 1587 1587 1587 1587 1588 1589 1590 1590 1591 1592
1514 1518 1522 1525 1524 1523 1526 1529 1531 1532 1532 1536 1542 1547 1553 1557 1560 1563 1566 1569 1571 1573 1576 1577 1578 1579 1581 1582 1583 1585 1586 1586 1585 1584 1585 1586 1586 1586 1587 1586 1586 1586 1587 1587 1588 1590 1591 1593 1593
1518 1520 1522 1526 1527 1525 1526 1528 1530 1531 1532 1536 1542 1548 1554 1558 1560 1562 1565 1568 1571 1572 1574 1576 1578 1577 1580 1582 1582 1584 1585 1586 1587 1587 1585 1586 1587 1586 1585 1585 1586 1587 1587 1588 1590 1590 1591 1591 1591
1516 1520 1523 1525 1527 1527 1529 1529 1530 1534 1536 1539 1544 1549 1554 1557 1560 1562 1565 1568 1570 1572 1574 1576 1577 1577 1578 1579 1582 1583 1585 1586 1588 1587 1588 1587 1586 1586 1586 1587 1588 1588 1590 1590 1590 1589 1589 1589 1590
1518 1519 1523 1525 1526 1529 1527 1530 1532 1536 1539 1542 1546 1550 1553 1556 1558 1562 1565 1568 1569 1571 1574 1576 1577 1577 1578 1580 1581 1583 1584 1586 1587 1588 1588 1587 1587 1587 1587 1587 1588 1591 1590 1589 1590 1590 1590 1590 1590
1519 1517 1519 1522 1525 1528 1528 1532 1530 1536 1540 1543 1547 1550 1553 1555 1558 1560 1564 1567 1569 1571 1574 1576 1577 1578 1579 1580 1582 1584 1586 1587 1588 1588 1588 1589 1587 1587 1587 1588 1590 1591 1590 1589 1591 1590 1590 1591 1591
1514 1512 1522 1520 1523 1526 1526 1533 1531 1536 1540 1542 1546 1550 1553 1555 1558 1560 1563 1565 1568 1571 1573 1575 1578 1580 1580 1581 1582 1584 1586 1587 1588 1589 1589 1587 1586 1586 1589 1588 1590 1590 1590 1592 1591 1591 1591 1589 1588
1509 1520 1520 1517 1520 1520 1521 1527 1531 1535 1538 1542 1545 1549 1552 1554 1558 1561 1563 1565 1567 1570 1572 1574 1576 1580 1581 1581 1582 1583 1584 1585 1588 1588 1588 1588 1589 1588 1587 1590 1590 1589 1591 1592 1592 1592 1591 1590 1588
1518 1515 1519 1519 1516 1518 1517 1521 1529 1534 1535 1539 1543 1546 1550 1552 1555 1558 1561 1564 1566 1569 1571 1573 1576 1578 1579 1581 1581 1583 1584 1585 1587 1587 1587 1587 1587 1587 1588 1590 1589 1589 1591 1591 1591 1591 1591 1590 1587
1510 1513 1517 1516 1517 1516 1515 1515 1521 1531 1534 1535 1538 1543 1546 1549 1552 1556 1559 1562 1564 1567 1569 1571 1574 1576 1578 1580 1581 1583 1584 1585 1587 1587 1586 1586 1586 1586 1587 1589 1588 1589 1590 1590 1589 1590 1591 1592 1589
1508 1510 1510 1514 1515 1516 1511 1513 1511 1522 1527 1531 1534 1537 1541 1545 1548 1552 1555 1558 1561 1564 1566 1569 1571 1573 1576 1579 1581 1583 1584 1586 1587 1586 1585 1586 1585 1585 1586 1586 1587 1588 1590 1588 1588 1590 1592 1593 1592
1506 1508 1509 1517 1512 1509 1509 1507 1510 1514 1522 1527 1530 1534 1537 1540 1543 1546 1550 1554 1557 1560 1561 1564 1567 1570 1573 1576 1578 1579 1582 1583 1585 1586 1585 1584 1584 1584 1585 1585 1586 1586 1587 1589 1587 1588 1591 1592 1592
1509 1498 1509 1515 1517 1520 1508 1516 1505 1509 1516 1520 1524 1528 1532 1536 1540 1542 1545 1549 1553 1556 1559 1562 1564 1567 1570 1573 1577 1578 1581 1583 1584 1585 1585 1584 1583 1583 1584 1584 1584 1585 1587 1587 1587 1587 1589 1590 1591
1506 1503 1507 1512 1512 1511 1508 1515 1501 1504 1510 1510 1515 1519 1523 1528 1533 1537 1539 1543 1548 1553 1556 1559 1561 1564 1568 1571 1574 1576 1579 1582 1582 1583 1583 1582 1582 1583 1583 1583 1583 1584 1585 1585 1586 1586 1587 1589 1590
1502 1507 1507 1507 1508 1523 1500 1510 1495 1495 1499 1500 1504 1510 1514 1520 1525 1531 1536 1541 1546 1550 1553 1556 1558 1561 1564 1568 1571 1574 1577 1578 1580 1581 1582 1583 1583 1583 1582 1582 1583 1583 1584 1585 1585 1585 1586 1587 1589
1509 1509 1524 1529 1524 1522 1496 1510 1490 1487 1492 1497 1497 1502 1509 1515 1520 1526 1532 1537 1542 1546 1550 1552 1554 1557 1561 1565 1568 1571 1574 1576 1577 1578 1581 1582 1583 1583 1582 1581 1582 1582 1583 1584 1584 1584 1584 1585 1587
1504 1500 1510 1538 1522 1510 1501 1516 1494 1488 1493 1495 1496 1497 1504 1510 1515 1521 1526 1531 1536 1541 1544 1547 1551 1555 1558 1562 1565 1568 1571 1574 1575 1577 1579 1580 1581 1582 1581 1580 1581 1581 1582 1583 1583 1583 1584 1584 1585
1497 1505 1487 1498 1496 1510 1493 1494 1484 1486 1490 1494 1495 1497 1502 1506 1510 1514 1519 1525 1532 1536 1540 1543 1547 1552 1556 1560 1563 1566 1569 1570 1573 1574 1576 1577 1578 1580 1579 1579 1579 1580 1580 1581 1582 1582 1582 1583 1584
1492 1488 1508 1501 1526 1532 1503 1505 1499 1487 1484 1489 1493 1496 1499 1504 1509 1512 1517 1521 1527 1532 1537 1541 1545 1550 1554 1558 1560 1561 1563 1567 1568 1570 1572 1574 1575 1576 1577 1577 1578 1578 1578 1578 1579 1580 1580 1581 1582
1497 1496 1493 1485 1491 1511 1515 1501 1473 1478 1480 1486 1492 1497 1500 1502 1505 1509 1514 1520 1525 1529 1533 1539 1544 1546 1550 1558 1557 1556 1557 1561 1564 1565 1567 1569 1570 1572 1573 1574 1575 1576 1576 1576 1576 1577 1578 1579 1580
1478 1484 1482 1501 1506 1497 1498 1500 1472 1479 1485 1489 1492 1495 1499 1501 1502 1506 1511 1517 1523 1526 1532 1535 1537 1540 1542 1543 1539 1550 1552 1556 1560 1561 1563 1565 1566 1567 1569 1570 1571 1572 1572 1573 1574 1575 1576 1577 1577